Weather History for Bloomington, IN

Change the Weather History Date:

Friday, January 6, 2012

  Actual Average Record
Temperature  
Mean Temperature 51 °F 29 °F  
Max Temperature 60 °F 38 °F 62 °F (2008)
Min Temperature 41 °F 21 °F -11 °F (2014)
Degree Days  
Heating Degree Days 14 36  
Month to date heating degree days 178 216  
Since 1 July heating degree days 1916 2289  
Cooling Degree Days 0 0  
Month to date cooling degree days 0 0  
Year to date cooling degree days 0 0  
Moisture  
Dew Point 32 °F    
Average Humidity 49    
Maximum Humidity 62    
Minimum Humidity 36    
Precipitation  
Precipitation 0.00 in 0.13 in 0.27 in (2002)
Month to date precipitation T 0.80  
Year to date precipitation T 0.80  
Sea Level Pressure  
Sea Level Pressure 29.84 in    
Wind  
Wind Speed 11 mph (SW)    
Max Wind Speed 20 mph    
Max Gust Speed 26 mph    
Visibility 10 miles    
Events      
T = Trace of Precipitation, MM = Missing Value Source: NWS Daily Summary

Daily Weather History Graph

Daily Weather History Graph

Search for Another Location

Airport:

Trip Planner

Search our weather history database for the weather conditions in past years. The results will help you decide how hot, cold, wet, or windy it might be!

Date:

Astronomy

Jan. 06, 2012 Rise Set
Actual Time 8:06 AM EST 5:38 PM EST
Civil Twilight 7:36 AM EST 6:08 PM EST
Nautical Twilight 7:02 AM EST 6:41 PM EST
Astronomical Twilight 6:30 AM EST 7:13 PM EST
Moon 3:28 PM EST (1/6) 5:45 AM EST (1/6)
Length of Visible Light 10h 31m
Length of Day
9h 32m
Waxing Gibbous, 93% of the Moon is Illuminated
Jan 6
Waxing Gibbous
Jan 9
Full
Jan 16
Last Quarter
Jan 23
New
Jan 30
First Quarter

Hourly Weather History & Observations

Time (EST) Temp. Windchill Dew Point Humidity Pressure Visibility Wind Dir Wind Speed Gust Speed Precip Events Conditions
12:53 AM 46.0 °F 41.0 °F 30.0 °F 54% 29.89 in 10.0 mi SW 10.4 mph - N/A   Clear
1:53 AM 45.0 °F 40.1 °F 30.0 °F 56% 29.89 in 10.0 mi SW 9.2 mph - N/A   Clear
2:53 AM 44.1 °F 38.1 °F 30.0 °F 58% 29.88 in 10.0 mi SW 11.5 mph - N/A   Clear
3:53 AM 44.1 °F 37.1 °F 30.0 °F 58% 29.88 in 10.0 mi SW 15.0 mph - N/A   Clear
4:53 AM 44.1 °F 38.6 °F 30.0 °F 58% 29.88 in 10.0 mi SW 10.4 mph - N/A   Clear
5:53 AM 43.0 °F 37.7 °F 30.0 °F 60% 29.88 in 10.0 mi SW 9.2 mph - N/A   Clear
6:53 AM 43.0 °F 37.7 °F 30.0 °F 60% 29.88 in 10.0 mi SSW 9.2 mph - N/A   Clear
7:53 AM 41.0 °F 36.4 °F 28.9 °F 62% 29.88 in 10.0 mi SSW 6.9 mph - N/A   Clear
8:53 AM 43.0 °F 38.2 °F 30.0 °F 60% 29.88 in 10.0 mi SSW 8.1 mph - N/A   Clear
9:53 AM 46.9 °F - 30.9 °F 54% 29.89 in 10.0 mi SSW 8.1 mph - N/A   Clear
10:53 AM 52.0 °F - 30.9 °F 45% 29.89 in 10.0 mi SW 10.4 mph 19.6 mph N/A   Clear
11:53 AM 55.0 °F - 30.9 °F 40% 29.87 in 10.0 mi WSW 12.7 mph - N/A   Clear
12:53 PM 57.0 °F - 32.0 °F 39% 29.83 in 10.0 mi SW 16.1 mph 24.2 mph N/A   Clear
1:53 PM 59.0 °F - 33.1 °F 38% 29.80 in 10.0 mi SW 15.0 mph 19.6 mph N/A   Clear
2:53 PM 60.1 °F - 33.1 °F 36% 29.78 in 10.0 mi SSW 11.5 mph 21.9 mph N/A   Clear
3:53 PM 60.1 °F - 33.1 °F 36% 29.77 in 10.0 mi SW 15.0 mph 23.0 mph N/A   Clear
4:53 PM 57.9 °F - 33.1 °F 39% 29.78 in 10.0 mi SSW 9.2 mph - N/A   Clear
6:53 PM 53.1 °F - 30.9 °F 43% 29.80 in 10.0 mi SSW 8.1 mph - N/A   Clear
7:53 PM 53.1 °F - 30.0 °F 41% 29.80 in 10.0 mi SSW 10.4 mph - N/A   Clear
8:53 PM 54.0 °F - 30.9 °F 41% 29.81 in 10.0 mi SW 10.4 mph - N/A   Clear
9:53 PM 54.0 °F - 34.0 °F 47% 29.80 in 10.0 mi SW 10.4 mph - N/A   Clear
10:53 PM 53.1 °F - 39.0 °F 59% 29.79 in 10.0 mi SW 13.8 mph 23.0 mph N/A   Clear
11:53 PM 53.1 °F - 42.1 °F 66% 29.79 in 10.0 mi West 11.5 mph 20.7 mph N/A   Clear